Home > Weather > Viersen > Past weeks

Flag for Germany Past Weather in Viersen, North Rhine-Westphalia, Germany — Yesterday and Last 2 Weeks

Now
70 °F

Clear.


Feels Like: 70 °F
Forecast: 54 / 74 °F
Wind: 3 mph from North

Location: Monchengladbach Airport

Current Time: May 27, 2016 at 8:23:47 PM

Latest Report: May 27, 2016 at 7:50 PM


Visibility: 10 mi

Pressure: 29.95 "Hg

Humidity: 64%

Dew Point: 57 °F

Location of ViersenLocation

Past Weather in Viersen — Graph

°F

Viersen Temperature Yesterday

Maximum temperature yesterday: 72 °F (at 3:50 PM)
Minimum temperature yesterday: 54 °F (at 7:50 AM)
Average temperature yesterday: 66 °F

High & Low Weather Summary for the Past Weeks

 TemperatureHumidityPressure
High75 °F (May 12, 6:20 PM)100% (May 22, 7:20 PM)30.12 "Hg (May 22, 7:20 PM)
Low45 °F (May 15, 7:50 AM)25% (May 13, 5:50 PM)29.47 "Hg (May 12, 6:20 PM)
Average60 °F64%29.93 "Hg
* Reported May 12 6:20 PM — May 27 6:50 PM, Viersen, Weather by CustomWeather, © 2016

Note: Actual official high and low records may vary slightly from our data, if they occured in-between our weather recording intervals... More about our weather records

Advertising

Viersen Weather History for the Previous 24 Hours

Scroll right to see more
 ConditionsComfort  
Time TempWeatherWind HumidityBarometerVisibility
6:50 PM
Fri, May 27
70 °FClear.7 mph64%29.95 "Hg10 mi
6:20 PM72 °FClear.9 mph61%29.95 "Hg10 mi
5:50 PM72 °FClear.6 mph61%29.95 "Hg10 mi
5:20 PM72 °FPassing clouds.5 mph57%29.95 "HgN/A
4:50 PM72 °FPassing clouds.7 mph61%29.95 "HgN/A
4:20 PM72 °FPassing clouds.6 mph61%29.95 "HgN/A
3:50 PM72 °FPassing clouds.9 mph65%29.98 "Hg6 mi
3:20 PM70 °FPassing clouds.8 mph64%29.98 "Hg5 mi
2:50 PM70 °FPassing clouds.7 mph64%29.98 "HgN/A
2:20 PM72 °FPassing clouds.8 mph65%29.98 "HgN/A
1:50 PM72 °FPassing clouds.7 mph69%29.98 "HgN/A
1:20 PM68 °FScattered clouds.7 mph73%29.98 "Hg4 mi
12:50 PM68 °FScattered clouds.7 mph78%29.98 "Hg4 mi
12:20 PM66 °FClear.5 mph78%29.98 "Hg4 mi
11:50 AM66 °FClear.6 mph78%29.98 "Hg4 mi
11:20 AM64 °FClear.5 mph83%29.98 "Hg4 mi
10:50 AM63 °FClear.5 mph83%29.98 "Hg4 mi
10:20 AM61 °FPartly sunny.3 mph94%29.98 "Hg4 mi
9:50 AM61 °FSprinkles. Clear.2 mph83%29.98 "Hg5 mi
9:20 AM61 °FSunny.3 mph83%29.98 "Hg10 mi
8:50 AM61 °FClear.2 mph83%29.98 "Hg5 mi
8:20 AM61 °FClear.2 mph83%29.98 "Hg5 mi
7:50 AM59 °FBroken clouds.3 mph82%29.98 "Hg5 mi
8:20 PM
Thu, May 26
68 °FPassing clouds.7 mph53%29.95 "HgN/A
Weather by CustomWeather, © 2016

See weather overviewHow to use our weather pages